Flag for U.S.A. Weather past 2 weeks in Houston, Texas, U.S.A.

72 °F

Mostly cloudy.

Feels Like: 69 °F
Forecast: 72 / 78 °F
Wind: 10 mph from Southeast

Location: Houston Hobby Airport

Current Time: Nov 26, 2015 at 11:10:24 PM

Latest Report: Nov 26, 2015 at 9:53 PM

Visibility: 10 mi

Pressure: 30.18 "Hg

Humidity: 91%

Dew point: 69 °F

Location of HoustonLocation

Historic Weather in Houston — Graph


Houston temperature yesterday

Maximum temperature yesterday: 77 °F (at 1:53 PM)
Minimum temperature yesterday: 63 °F (at 12:53 AM)
Average temperature yesterday: 69 °F

Past Weeks' High & Low Weather Summary

High80 °F (Nov 16, 11:53 AM)100% (Nov 18, 5:00 AM)30.37 "Hg (Nov 18, 5:00 AM)
Low38 °F (Nov 23, 4:53 AM)28% (Nov 18, 3:53 PM)29.61 "Hg (Nov 17, 10:53 AM)
Average63 °F70%30.11 "Hg
* Reported Nov 11 8:53 PM — Nov 26 8:53 PM, Houston, Weather by CustomWeather, © 2015

Note: Actual official high and low records may vary slightly from our data, if they occured in-between our weather recording intervals... More about our weather records


Houston weather history for previous 24 hours

Time TempWeatherWind HumidityBarometerVisibility
8:53 PM
Thu, Nov 26
71 °FMostly cloudy.6 mph90%30.17 "Hg10 mi
7:53 PM71 °FLow clouds.10 mph90%30.15 "Hg9 mi
6:53 PM71 °FLow clouds.9 mph90%30.15 "Hg9 mi
5:53 PM71 °FOvercast.10 mph90%30.14 "Hg10 mi
4:53 PM72 °FPartly sunny.9 mph87%30.14 "Hg10 mi
3:53 PM74 °FBroken clouds.12 mph82%30.14 "Hg10 mi
2:53 PM75 °FBroken clouds.12 mph82%30.15 "Hg10 mi
1:53 PM77 °FBroken clouds.12 mph77%30.15 "Hg10 mi
12:53 PM79 °FBroken clouds.10 mph72%30.16 "Hg10 mi
11:53 AM77 °FMore clouds than sun.12 mph77%30.19 "Hg10 mi
10:53 AM76 °FOvercast.14 mph80%30.20 "Hg10 mi
9:53 AM75 °FBroken clouds.12 mph79%30.21 "Hg10 mi
8:53 AM71 °FBroken clouds.12 mph87%30.20 "Hg10 mi
7:53 AM69 °FLow clouds.9 mph90%30.20 "Hg10 mi
6:53 AM68 °FLow clouds.8 mph93%30.18 "Hg7 mi
5:53 AM69 °FLow clouds.6 mph93%30.16 "Hg10 mi
4:53 AM69 °FLow clouds.8 mph93%30.15 "Hg10 mi
3:53 AM69 °FLow clouds.10 mph93%30.14 "Hg10 mi
2:53 AM69 °FLow clouds.8 mph90%30.14 "Hg10 mi
1:53 AM69 °FPassing clouds.9 mph90%30.15 "Hg10 mi
12:49 AM68 °FPartly cloudy.6 mph93%30.16 "Hg10 mi
11:53 PM
Wed, Nov 25
68 °FLow clouds.12 mph93%30.16 "Hg9 mi
Weather by CustomWeather, © 2015

See weather overviewHow to use our weather pages